When you browse on this site, cookies collect data to enhance your experience and personalize the content and advertising you see.
Visit our Privacy Policy to learn more. By continuing to use the site, you agree to this use of cookies and data.
  • In France
  • List of Countries
  • For 7 days
  • Water Temperature
  • Satellite Maps
  • Weather Map
  • Weather Widgets
  • user-avatar
    Login

    Hourly Weather Chakhansur

    Today, 16 February, Saturday

    Time Temperature Precipitation Wind Pressure Humidity
    00:00 +12°C° 0 mm 3 mps 722 mmHg 34%
    01:00 +12°C° 0 mm 3 mps 722 mmHg 35%
    02:00 +12°C° 0 mm 3 mps 722 mmHg 35%
    03:00 +12°C° 0 mm 4 mps 722 mmHg 36%
    04:00 +11°C° 0 mm 4 mps 721 mmHg 36%
    05:00 +11°C° 0 mm 4 mps 721 mmHg 36%
    06:00 +11°C° 0 mm 4 mps 721 mmHg 36%
    07:00 +11°C° 0 mm 4 mps 721 mmHg 36%
    08:00 +12°C° 0 mm 5 mps 721 mmHg 32%
    09:00 +14°C° 0 mm 5 mps 721 mmHg 27%
    10:00 +16°C° 0 mm 5 mps 722 mmHg 23%
    11:00 +17°C° 0 mm 5 mps 721 mmHg 21%
    12:00 +20°C° 0 mm 5 mps 720 mmHg 18%
    13:00 +21°C° 0 mm 5 mps 719 mmHg 15%
    14:00 +22°C° 0 mm 5 mps 719 mmHg 15%
    15:00 +22°C° 0 mm 4 mps 718 mmHg 15%
    16:00 +23°C° 0 mm 4 mps 718 mmHg 15%
    17:00 +22°C° 0 mm 4 mps 717 mmHg 17%
    18:00 +21°C° 0 mm 4 mps 717 mmHg 19%
    19:00 +20°C° 0 mm 4 mps 717 mmHg 21%
    20:00 +19°C° 0 mm 4 mps 717 mmHg 23%
    21:00 +19°C° 0 mm 4 mps 716 mmHg 25%
    22:00 +18°C° 0 mm 4 mps 716 mmHg 27%
    23:00 +18°C° 0 mm 4 mps 716 mmHg 29%

    Tomorrow, 17 February, Sunday

    Time Temperature Precipitation Wind Pressure Humidity
    00:00 +17°C° 0 mm 3 mps 715 mmHg 32%
    01:00 +17°C° 0 mm 3 mps 715 mmHg 34%
    02:00 +16°C° 0 mm 2 mps 715 mmHg 35%
    03:00 +16°C° 0 mm 2 mps 715 mmHg 36%
    04:00 +15°C° 0 mm 2 mps 715 mmHg 37%
    05:00 +15°C° 0 mm 2 mps 716 mmHg 38%
    06:00 +15°C° 0 mm 2 mps 716 mmHg 40%
    07:00 +14°C° 0 mm 3 mps 716 mmHg 41%
    08:00 +16°C° 0 mm 2 mps 717 mmHg 39%
    09:00 +17°C° 0 mm 2 mps 717 mmHg 37%
    10:00 +19°C° 0 mm 1 mps 717 mmHg 34%
    11:00 +19°C° 0 mm 2 mps 717 mmHg 32%
    12:00 +19°C° 0 mm 2 mps 717 mmHg 30%
    13:00 +20°C° 0 mm 2 mps 716 mmHg 27%
    14:00 +21°C° 0 mm 3 mps 716 mmHg 26%
    15:00 +21°C° 0 mm 3 mps 715 mmHg 25%
    16:00 +22°C° 0 mm 3 mps 715 mmHg 23%
    17:00 +21°C° 0 mm 3 mps 715 mmHg 25%
    18:00 +20°C° 0 mm 3 mps 715 mmHg 27%
    19:00 +19°C° 0 mm 3 mps 715 mmHg 29%
    20:00 +18°C° 0 mm 2 mps 715 mmHg 32%
    21:00 +17°C° 0 mm 2 mps 715 mmHg 34%
    22:00 +18°C° 0 mm 1 mps 715 mmHg 36%
    23:00 +18°C° 0 mm 1 mps 715 mmHg 36%

    Day after tomorrow, 18 February, Monday

    Time Temperature Precipitation Wind Pressure Humidity
    00:00 +18°C° 0 mm 1 mps 715 mmHg 36%
    01:00 +18°C° 0 mm 1 mps 715 mmHg 36%
    02:00 +17°C° 0 mm 2 mps 715 mmHg 36%
    03:00 +16°C° 0 mm 3 mps 715 mmHg 36%
    04:00 +15°C° 0 mm 4 mps 714 mmHg 35%
    05:00 +14°C° 0 mm 4 mps 715 mmHg 35%
    06:00 +14°C° 0 mm 3 mps 715 mmHg 35%
    07:00 +14°C° 0 mm 3 mps 716 mmHg 36%
    08:00 +16°C° 0 mm 3 mps 716 mmHg 32%
    09:00 +17°C° 0 mm 3 mps 717 mmHg 29%
    10:00 +18°C° 0 mm 3 mps 717 mmHg 25%
    11:00 +19°C° 0 mm 2 mps 717 mmHg 23%
    12:00 +20°C° 0 mm 2 mps 717 mmHg 21%
    13:00 +21°C° 0 mm 2 mps 716 mmHg 19%
    14:00 +22°C° 0 mm 1 mps 716 mmHg 19%
    15:00 +22°C° 0 mm 1 mps 715 mmHg 18%
    16:00 +22°C° 0 mm 1 mps 715 mmHg 18%
    17:00 +21°C° 0 mm 1 mps 715 mmHg 21%
    18:00 +20°C° 0 mm 1 mps 715 mmHg 23%
    19:00 +19°C° 0 mm 1 mps 715 mmHg 26%
    20:00 +19°C° 0 mm 1 mps 715 mmHg 26%
    21:00 +18°C° 0 mm 2 mps 715 mmHg 25%
    22:00 +17°C° 0 mm 2 mps 715 mmHg 25%
    23:00 +17°C° 0 mm 2 mps 714 mmHg 26%

    19 February, Tuesday

    Time Temperature Precipitation Wind Pressure Humidity
    00:00 +16°C° 0 mm 2 mps 714 mmHg 27%
    01:00 +16°C° 0 mm 2 mps 714 mmHg 29%
    02:00 +14°C° 0 mm 3 mps 713 mmHg 30%
    03:00 +14°C° 0 mm 3 mps 713 mmHg 31%
    04:00 +14°C° 0 mm 3 mps 713 mmHg 32%
    05:00 +13°C° 0 mm 3 mps 713 mmHg 33%
    06:00 +13°C° 0 mm 3 mps 713 mmHg 35%
    07:00 +14°C° 0 mm 2 mps 713 mmHg 36%
    08:00 +16°C° 0 mm 2 mps 713 mmHg 34%
    09:00 +17°C° 0 mm 2 mps 714 mmHg 31%
    10:00 +19°C° 0 mm 2 mps 714 mmHg 29%
    11:00 +20°C° 0 mm 3 mps 714 mmHg 28%
    12:00 +21°C° 0 mm 4 mps 713 mmHg 27%
    13:00 +22°C° 0 mm 5 mps 713 mmHg 25%
    14:00 +22°C° 0 mm 4 mps 713 mmHg 24%
    15:00 +22°C° 0 mm 4 mps 713 mmHg 22%
    16:00 +22°C° 0 mm 3 mps 712 mmHg 21%
    17:00 +21°C° 0 mm 2 mps 713 mmHg 24%
    18:00 +21°C° 0 mm 1 mps 713 mmHg 27%
    19:00 +19°C° 0 mm 1 mps 713 mmHg 31%
    20:00 +19°C° 0 mm 1 mps 714 mmHg 30%
    21:00 +19°C° 0 mm 1 mps 714 mmHg 29%
    22:00 +19°C° 0 mm 1 mps 714 mmHg 28%
    23:00 +17°C° 0 mm 2 mps 715 mmHg 31%

    20 February, Wednesday

    Time Temperature Precipitation Wind Pressure Humidity
    00:00 +17°C° 0 mm 3 mps 715 mmHg 35%
    01:00 +15°C° 0 mm 4 mps 715 mmHg 38%
    02:00 +15°C° 0 mm 5 mps 715 mmHg 41%
    03:00 +15°C° 0 mm 7 mps 715 mmHg 43%
    04:00 +13°C° 0 mm 8 mps 715 mmHg 46%
    05:00 +13°C° 0 mm 8 mps 716 mmHg 48%
    06:00 +12°C° 0 mm 7 mps 717 mmHg 49%
    07:00 +11°C° 0 mm 7 mps 717 mmHg 51%
    08:00 +12°C° 0 mm 7 mps 718 mmHg 50%
    09:00 +12°C° 0 mm 8 mps 718 mmHg 48%
    10:00 +12°C° 0 mm 8 mps 719 mmHg 47%
    11:00 +13°C° 0 mm 9 mps 718 mmHg 44%
    12:00 +13°C° 0 mm 10 mps 718 mmHg 41%
    13:00 +14°C° 0 mm 11 mps 718 mmHg 38%
    14:00 +13°C° 0 mm 11 mps 718 mmHg 38%
    15:00 +13°C° 0 mm 12 mps 718 mmHg 37%
    16:00 +13°C° 0 mm 12 mps 718 mmHg 36%
    17:00 +12°C° 0 mm 12 mps 719 mmHg 37%
    18:00 +11°C° 0 mm 11 mps 719 mmHg 37%
    19:00 +9°C° 0 mm 11 mps 720 mmHg 37%
    20:00 +8°C° 0 mm 12 mps 721 mmHg 38%
    21:00 +7°C° 0 mm 12 mps 721 mmHg 39%
    22:00 +5°C° 0 mm 12 mps 721 mmHg 40%
    23:00 +5°C° 0 mm 12 mps 721 mmHg 41%

    21 February, Thursday

    Time Temperature Precipitation Wind Pressure Humidity
    00:00 +4°C° 0 mm 12 mps 721 mmHg 43%
    01:00 +3°C° 0 mm 12 mps 721 mmHg 44%
    02:00 +3°C° 0 mm 12 mps 721 mmHg 44%
    03:00 +2°C° 0 mm 12 mps 721 mmHg 45%
    04:00 0°C° 0 mm 12 mps 722 mmHg 45%
    05:00 +1°C° 0 mm 11 mps 722 mmHg 44%
    06:00 +1°C° 0 mm 11 mps 723 mmHg 43%
    07:00 +1°C° 0 mm 11 mps 723 mmHg 41%
    08:00 +2°C° 0 mm 11 mps 723 mmHg 39%
    09:00 +3°C° 0 mm 11 mps 724 mmHg 36%
    10:00 +4°C° 0 mm 11 mps 724 mmHg 33%
    11:00 +6°C° 0 mm 11 mps 724 mmHg 30%
    12:00 +7°C° 0 mm 10 mps 723 mmHg 28%
    13:00 +8°C° 0 mm 10 mps 723 mmHg 26%
    14:00 +8°C° 0 mm 9 mps 722 mmHg 25%
    15:00 +8°C° 0 mm 9 mps 722 mmHg 25%
    16:00 +9°C° 0 mm 8 mps 722 mmHg 24%
    17:00 +9°C° 0 mm 7 mps 722 mmHg 26%
    18:00 +8°C° 0 mm 6 mps 723 mmHg 27%
    19:00 +7°C° 0 mm 5 mps 723 mmHg 29%
    20:00 +7°C° 0 mm 5 mps 723 mmHg 31%
    21:00 +6°C° 0 mm 4 mps 724 mmHg 33%
    22:00 +6°C° 0 mm 4 mps 724 mmHg 35%
    23:00 +5°C° 0 mm 4 mps 724 mmHg 36%
    Show more